This is the latest recevied weather packets stored in our database for station/object PA3CPS. If no packets are shown the sender has not sent any weather packets the latest 1 day(s).
| Time | Temp. | Humidity | Pressure | Rain* | Wind** | Luminosity | Snow |
|---|---|---|---|---|---|---|---|
| 1777959211 | 8.89° C | 92% | 1011.3 hPa | 0 mm | 1.79 m/s, 12° | 12 W/m² | - |
| 1777958909 | 8.89° C | 92% | 1011.3 hPa | 0 mm | 1.79 m/s, 44° | 12 W/m² | - |
| 1777958608 | 8.89° C | 92% | 1011.3 hPa | 0 mm | 2.24 m/s, 359° | 9 W/m² | - |
| 1777958308 | 8.89° C | 92% | 1011.2 hPa | 0 mm | 2.24 m/s, 8° | 7 W/m² | - |
| 1777958006 | 8.89° C | 92% | 1011.2 hPa | 0 mm | 1.34 m/s, 4° | 7 W/m² | - |
| 1777957703 | 8.89° C | 92% | 1011.2 hPa | 0 mm | 2.24 m/s, 343° | 7 W/m² | - |
| 1777957402 | 8.89° C | 91% | 1011.1 hPa | 0 mm | 2.24 m/s, 352° | 7 W/m² | - |
| 1777957102 | 8.89° C | 91% | 1011.1 hPa | 0 mm | 1.79 m/s, 343° | 7 W/m² | - |
| 1777956801 | 8.89° C | 91% | 1011.1 hPa | 0 mm | 2.68 m/s, 14° | 7 W/m² | - |
| 1777956496 | 8.89° C | 91% | 1011.2 hPa | 0 mm | 1.79 m/s, 8° | 7 W/m² | - |
| 1777956193 | 8.89° C | 91% | 1011.3 hPa | 0 mm | 2.24 m/s, 0° | 7 W/m² | - |
| 1777955892 | 8.89° C | 91% | 1011.3 hPa | 0 mm | 3.13 m/s, 6° | 0 W/m² | - |
| 1777955589 | 8.89° C | 91% | 1011.3 hPa | 0 mm | 2.68 m/s, 18° | 0 W/m² | - |
| 1777955288 | 8.89° C | 91% | 1011.4 hPa | 0 mm | 2.68 m/s, 17° | 0 W/m² | - |
| 1777954987 | 8.89° C | 91% | 1011.4 hPa | 0 mm | 1.79 m/s, 354° | 0 W/m² | - |
| 1777954685 | 8.89° C | 90% | 1011.3 hPa | 0 mm | 3.13 m/s, 345° | 0 W/m² | - |
| 1777954383 | 8.89° C | 90% | 1011.4 hPa | 0 mm | 2.68 m/s, 347° | 0 W/m² | - |
| 1777954083 | 8.89° C | 90% | 1011.3 hPa | 0 mm | 2.24 m/s, 10° | 0 W/m² | - |
| 1777953782 | 8.89° C | 90% | 1011.3 hPa | 0 mm | 3.58 m/s, 345° | 0 W/m² | - |
| 1777953481 | 8.89° C | 90% | 1011.2 hPa | 0 mm | 3.58 m/s, 11° | 0 W/m² | - |
| 1777953180 | 8.89° C | 90% | 1011.3 hPa | 0 mm | 3.58 m/s, 357° | 0 W/m² | - |
| 1777952878 | 8.89° C | 90% | 1011.2 hPa | 0 mm | 2.24 m/s, 2° | 0 W/m² | - |
| 1777952577 | 9.44° C | 90% | 1011.2 hPa | 0 mm | 2.68 m/s, 322° | 0 W/m² | - |
| 1777952274 | 9.44° C | 90% | 1011.2 hPa | 0 mm | 3.13 m/s, 18° | 0 W/m² | - |
| 1777951973 | 9.44° C | 90% | 1011.3 hPa | 0 mm | 1.79 m/s, 356° | 0 W/m² | - |
* Rain latest hour (hover to see other rain measurements)
** Current wind speed in m/s (hover to see current wind gust speed)